Torna al catalogo

DRESDEN

AttivoScienzaSSO
NORAD 65297·PAYLOAD·🇷🇼 Rwanda

Lanciato Aug 23, 2025 da Rocket Lab Launch Complex 1

Loading…

Prossimi Passaggi (prossime 24 ore)

TLE

AggiornatoSource: Space-Track

Epoca: Sep 14, 2026, 04:15 UTC

1 65297U 25185A   26257.17757593  .00006092  00000-0  79511-3 0  9999
2 65297  97.9620 339.7636 0015370 154.6891 205.5078 14.80797181 56993

Traccia DRESDEN in tempo reale con AllMySat

Download on the App Store